Theta_e
327 323 323 324 327 329 329 331 333 333 333 335 334 334 334 336 337 338 338 339 340 341 337 333 330 332 330 330 328 327 325 324 324 322 320 320 320 320 320 322 323 323 323
324 323 322 323 327 328 329 331 333 334 335 338 337 338 337 337 338 338 339 340 339 340 337 332 329 328 330 329 329 328 325 323 323 321 317 316 318 319 319 320 321 322 323
323 323 323 323 326 328 329 331 333 334 336 337 338 338 338 337 338 339 337 339 340 338 335 332 330 329 330 330 329 328 326 325 323 323 321 314 312 313 319 319 320 322 320
325 325 324 324 325 328 331 332 333 333 334 336 337 338 336 335 336 337 337 338 339 337 335 333 331 331 330 328 329 329 326 323 323 322 322 322 319 317 315 317 319 320 320
325 326 326 327 328 328 331 332 334 334 335 336 337 337 335 336 336 336 337 336 337 337 336 335 334 331 329 329 330 329 327 325 324 323 323 322 320 319 317 316 317 318 320
325 327 329 330 331 332 332 334 334 335 336 336 335 335 335 335 334 335 335 336 336 336 336 336 334 332 331 330 330 329 328 328 326 326 324 323 322 319 316 314 315 316 319
325 327 327 330 334 333 334 335 335 333 336 337 336 336 335 335 335 335 334 334 334 334 336 336 334 333 332 331 330 328 328 327 326 327 327 325 324 325 320 318 318 318 323
325 327 329 331 335 336 337 337 336 335 337 337 336 337 337 336 337 336 334 334 333 334 335 335 334 334 332 332 330 329 328 328 327 327 325 325 325 324 322 321 320 318 317
324 327 329 331 336 339 340 339 337 338 338 338 338 338 337 336 336 334 333 333 335 336 334 332 330 332 332 331 331 329 328 328 326 327 326 324 325 325 324 324 322 317 312
324 326 329 332 338 332 330 338 339 339 340 340 339 339 337 335 334 333 332 333 331 328 329 330 331 330 330 329 328 326 326 325 325 324 323 324 324 324 325 324 322 323 319
328 330 331 329 326 327 327 329 333 334 334 335 335 335 334 333 332 331 331 330 329 329 330 329 326 325 326 326 326 325 325 322 321 321 321 321 321 321 321 321 322 320 319
327 327 325 325 325 324 326 328 330 330 329 330 330 330 331 330 329 328 328 327 324 325 325 323 322 322 321 320 320 319 319 318 317 317 317 317 317 316 317 317 317 318 318
326 326 326 326 324 323 326 325 326 325 326 328 328 326 326 325 324 325 326 324 322 321 321 320 320 320 320 319 317 316 316 316 315 315 314 314 313 313 314 314 314 316 317
323 323 324 323 322 323 326 323 323 324 325 326 325 325 325 325 325 325 323 322 320 317 317 318 317 317 316 316 315 313 314 313 313 313 313 313 312 312 313 314 314 314 313
321 322 321 320 320 321 322 324 323 324 326 328 328 327 327 326 325 322 320 319 317 317 315 313 313 314 313 311 313 313 312 310 310 311 311 312 313 315 317 316 315 313 311
320 321 321 321 321 320 321 322 322 324 329 329 327 324 324 323 321 319 318 318 318 316 312 310 310 311 311 308 307 311 309 309 308 307 309 310 311 312 312 312 312 313 311
323 323 323 324 324 325 326 326 326 328 327 325 322 320 322 321 321 320 320 316 315 313 310 309 309 311 313 305 304 307 309 308 307 307 307 307 308 309 309 310 309 309 308
321 322 324 321 319 319 319 321 323 322 319 318 318 318 321 322 321 321 319 315 312 311 310 309 310 311 311 304 302 304 309 308 308 308 308 306 307 308 307 307 308 308 309
324 323 323 321 319 317 317 318 317 316 315 315 316 317 318 316 315 314 314 312 310 310 309 309 311 310 310 302 301 303 307 307 307 307 308 307 306 302 300 300 302 304 306
322 322 322 320 317 316 316 315 313 312 312 313 313 315 314 314 313 312 307 307 309 309 310 310 310 306 307 302 299 302 305 305 305 307 306 303 303 299 298 299 297 297 301
323 324 322 319 317 319 318 314 313 311 312 312 312 312 313 311 310 308 309 310 309 310 309 308 307 306 305 305 299 299 305 304 304 303 303 304 299 298 297 297 299 299 302
323 324 321 319 319 318 317 314 313 313 313 311 310 310 310 308 310 309 309 309 308 307 307 304 304 306 306 301 300 298 298 300 301 302 302 303 297 296 296 299 298 297 299
321 320 321 320 317 317 316 312 310 310 310 309 308 309 310 310 310 309 309 307 307 305 304 303 303 303 304 305 300 298 297 299 302 302 301 298 296 296 300 300 299 301 304
322 322 320 316 315 315 314 311 310 311 309 309 308 308 308 308 308 308 307 306 305 304 303 302 301 301 303 303 303 301 303 302 303 300 299 299 298 297 299 303 305 305 306
316 318 316 315 313 312 310 310 311 310 307 306 307 307 307 306 306 305 304 305 304 302 303 301 301 301 301 302 296 295 298 299 297 295 300 300 299 300 300 301 303 306 306
312 311 308 308 306 307 309 309 310 309 307 306 306 305 305 304 304 303 304 296 296 294 295 294 298 302 298 295 293 293 293 291 293 298 297 297 297 297 297 297 299 302 302
Wind_Speed
12 6 7 7 7 7 9 11 12 9 8 4 3 2 3 3 3 3 4 4 4 3 4 2 2 2 3 3 3 2 3 2 2 1 2 3 4 6 6 6 6 8 8
7 7 8 8 10 11 11 10 11 10 9 6 3 3 3 2 2 3 4 5 6 5 4 4 3 3 2 2 2 2 1 1 3 2 0 2 2 4 8 7 8 11 8
10 8 9 11 8 11 14 13 12 10 9 7 5 3 2 3 2 2 3 4 5 5 4 5 3 3 2 2 3 3 4 2 2 5 2 1 4 1 0 7 8 9 8
8 9 10 9 12 15 9 9 9 10 6 7 5 6 5 4 4 4 3 3 4 5 5 4 5 4 2 4 3 2 3 3 3 1 5 3 2 3 4 2 5 8 10
15 14 15 17 16 11 12 11 9 8 7 10 8 6 2 3 2 2 5 5 5 6 6 4 3 4 3 3 4 4 4 3 3 4 2 3 3 4 6 7 4 4 8
13 13 12 9 9 7 9 9 12 12 10 9 7 8 7 5 3 2 1 2 3 5 4 4 3 4 4 5 5 4 4 4 4 3 4 4 4 2 4 7 5 7 4
15 13 11 11 11 13 12 10 12 10 8 7 7 7 6 6 5 5 4 3 1 3 5 4 4 3 5 4 4 4 5 4 4 5 5 5 6 6 4 5 7 7 5
17 18 16 13 15 16 14 12 10 7 7 7 6 5 5 3 4 4 3 3 2 2 3 5 3 3 4 3 4 3 3 4 4 6 4 4 5 5 5 5 5 8 6
15 18 14 14 12 11 11 8 9 8 8 6 6 6 6 6 5 1 2 1 2 1 3 6 5 3 3 3 1 1 2 2 3 4 4 3 3 3 3 5 5 5 7
8 6 6 6 9 10 7 9 9 8 7 6 4 5 5 4 3 4 3 2 2 4 6 3 3 1 2 2 2 1 1 1 2 2 4 4 3 4 3 3 4 5 6
11 10 10 13 14 13 11 5 9 8 8 7 4 4 4 5 4 3 2 3 2 3 2 4 3 3 3 3 3 3 3 3 4 3 3 5 3 3 4 3 4 6 5
10 9 14 16 13 16 11 5 4 8 8 6 4 4 5 5 5 3 3 4 5 5 5 5 5 4 4 4 5 4 4 3 4 5 5 6 4 6 5 3 6 5 6
9 7 11 11 13 16 8 6 4 8 8 6 5 5 5 5 5 5 5 6 5 5 4 4 4 2 3 3 2 1 2 3 4 4 5 6 5 6 4 5 5 5 5
9 6 9 12 12 8 7 5 7 8 5 6 4 5 5 5 5 6 6 5 5 6 4 4 2 1 2 3 3 3 3 4 5 5 5 6 6 7 7 6 7 5 5
8 7 7 7 7 7 7 8 6 7 6 6 6 4 4 5 6 6 5 5 5 5 3 3 3 2 2 2 3 4 4 4 6 6 5 4 7 12 9 5 7 6 4
9 7 8 6 6 6 7 5 5 6 7 6 6 5 6 6 5 5 5 4 2 4 3 1 2 2 3 6 6 3 3 4 5 6 6 6 10 10 12 11 9 8 6
7 9 10 10 8 7 5 6 6 5 5 6 6 6 5 5 6 6 4 3 3 1 2 3 3 5 5 8 10 7 4 5 6 7 6 8 7 10 8 10 11 9 8
14 4 5 8 12 7 5 4 3 6 7 6 6 5 5 4 3 3 2 0 1 1 3 3 4 4 4 8 8 7 5 5 6 5 5 5 8 8 10 11 10 10 9
8 7 7 3 8 10 8 4 2 6 7 5 5 4 4 4 3 3 3 3 4 3 3 3 4 3 5 8 9 7 6 5 6 6 7 8 9 12 12 10 11 13 11
7 7 11 12 12 10 10 3 2 5 5 5 4 4 5 4 5 4 4 3 2 3 2 3 2 2 5 6 6 5 3 5 6 7 7 9 10 14 11 9 9 10 13
10 10 12 9 8 3 3 5 3 3 3 4 3 1 1 2 3 4 3 2 2 2 2 4 3 4 3 5 5 7 4 4 5 4 5 6 11 15 17 14 8 9 11
13 10 7 8 7 4 3 8 6 3 3 3 3 1 1 2 2 2 2 2 2 3 4 5 6 3 4 5 5 6 4 5 4 4 5 7 12 15 16 11 13 13 11
13 11 10 9 9 10 10 8 4 5 4 4 2 1 2 2 3 3 1 2 2 3 4 3 4 6 5 4 6 5 6 4 4 4 8 13 14 13 10 10 13 9 4
7 6 8 10 9 7 6 6 6 4 4 4 3 2 4 3 3 2 1 2 2 2 2 4 4 4 4 5 5 5 5 6 5 8 8 9 11 11 10 8 7 4 4
3 7 9 9 7 7 7 4 4 5 5 5 3 3 2 3 3 3 3 1 2 1 1 1 2 4 5 4 5 5 5 5 5 6 3 5 7 7 8 8 7 7 6
4 5 7 4 5 6 6 6 5 4 5 3 2 1 2 2 2 1 1 5 6 6 4 2 1 2 7 8 9 8 5 5 6 3 4 6 7 7 8 8 8 7 8
Wind_Direction
229 216 193 174 163 159 163 180 175 177 166 160 143 144 196 197 219 195 200 201 193 213 168 188 187 172 184 200 194 170 206 241 177 125 281 272 231 225 227 219 223 225 219
207 211 181 174 183 181 183 182 183 171 181 175 140 161 169 187 149 184 187 198 201 190 192 186 201 190 225 211 197 207 195 224 194 183 33 298 288 240 229 218 220 228 223
205 206 193 191 166 181 190 190 183 172 184 145 122 96 90 92 145 207 199 213 198 183 183 187 180 202 192 240 219 218 207 249 213 218 176 246 244 322 71 231 227 229 221
200 193 190 186 189 207 191 182 172 179 178 151 160 187 187 167 193 189 182 195 185 180 180 178 194 214 196 222 233 208 212 184 248 257 230 241 175 237 296 223 241 228 221
205 198 196 201 195 186 190 191 163 159 190 183 190 200 170 163 190 145 204 189 180 169 173 201 204 218 204 224 235 239 218 195 221 208 255 250 235 228 238 283 236 233 233
207 208 199 179 184 158 173 164 174 192 191 180 161 189 191 195 171 195 191 234 231 161 158 185 214 227 237 219 217 234 264 295 271 268 225 242 247 223 213 243 258 252 225
197 199 184 180 165 169 175 177 186 182 180 164 164 201 189 195 196 203 216 183 159 262 144 176 202 222 245 253 263 234 243 229 233 242 256 230 235 242 239 242 261 267 279
200 195 193 184 182 177 177 180 177 160 148 154 151 169 177 176 220 218 184 139 147 225 163 137 82 358 288 253 243 269 280 253 252 271 251 267 270 233 231 245 252 275 260
195 199 187 185 176 168 159 170 136 134 138 149 151 159 177 192 225 248 112 218 183 163 76 26 42 341 326 307 331 311 305 302 305 284 269 254 268 266 242 241 245 262 284
165 145 155 135 94 101 42 114 112 123 125 133 166 169 184 169 130 150 202 137 63 21 30 24 29 23 75 85 100 64 32 295 273 266 282 280 271 273 245 273 277 251 266
118 116 102 86 73 24 122 85 104 111 98 101 87 104 119 131 131 146 134 103 22 29 53 73 94 81 74 56 57 41 24 359 342 342 317 303 305 292 296 286 278 279 277
118 132 108 109 108 98 291 84 103 100 90 87 97 105 113 122 121 137 126 89 84 84 103 96 79 65 52 39 28 14 18 1 334 321 325 302 327 312 303 296 290 279 276
130 117 127 130 131 120 191 141 137 100 87 106 101 96 98 116 142 115 111 115 114 98 92 86 78 54 35 31 16 325 302 288 277 289 291 286 303 296 296 294 285 276 276
93 90 94 113 109 135 138 141 117 98 107 106 125 108 139 150 109 110 117 127 133 137 134 100 90 102 157 211 238 280 286 308 306 288 276 278 282 280 287 285 282 284 287
86 102 108 102 123 137 123 127 119 126 116 116 116 131 124 107 125 124 132 153 151 122 119 172 182 172 223 254 291 294 299 299 311 309 304 293 293 295 271 268 279 283 279
106 101 96 99 84 58 71 99 94 79 108 110 96 114 112 102 118 135 158 148 140 146 185 173 258 260 245 257 267 239 314 319 303 301 307 306 304 309 296 301 276 247 259
48 88 91 80 68 57 50 78 91 104 91 104 117 117 137 152 149 172 162 159 216 71 359 288 313 306 309 326 342 8 338 311 307 298 308 322 322 320 312 306 299 288 261
120 63 98 129 131 103 59 87 127 131 122 113 116 122 130 136 121 146 208 233 351 261 278 303 288 297 307 350 1 343 316 310 306 312 333 313 312 320 327 324 304 292 283
107 119 113 125 78 80 95 88 84 93 97 115 122 119 123 134 180 229 262 248 245 264 265 263 272 296 315 342 348 335 328 333 336 338 343 340 346 342 343 322 304 296 287
90 80 60 55 46 41 57 328 155 113 134 140 160 178 175 182 216 235 270 268 273 288 294 279 306 327 316 330 347 15 344 346 339 334 344 339 342 324 322 314 302 291 288
72 64 67 54 87 68 86 234 178 194 171 167 149 151 243 248 245 242 229 264 262 269 288 321 328 311 326 333 18 13 351 340 325 339 346 325 317 329 329 319 299 275 288
112 119 131 133 217 148 190 234 219 218 163 135 125 142 347 317 316 291 357 2 354 332 339 331 313 322 348 347 19 15 19 336 312 327 315 305 318 316 313 318 311 295 289
157 182 164 181 188 202 208 217 216 164 165 147 156 100 98 96 116 117 58 340 333 334 322 320 317 329 347 353 359 346 337 316 301 295 301 302 300 300 306 313 318 330 319
177 150 161 179 190 220 219 225 178 156 115 94 92 88 97 86 67 43 341 324 340 326 338 348 352 346 350 351 352 341 342 329 326 341 320 309 294 284 283 313 315 309 317
146 153 169 173 190 186 180 131 70 103 104 111 88 62 26 15 11 19 1 11 86 251 59 40 354 346 344 337 298 298 334 330 330 325 327 351 354 344 342 329 317 313 317
58 71 59 94 113 66 31 57 64 90 114 104 116 16 346 1 356 10 194 65 93 80 112 123 351 325 261 309 330 339 338 12 5 16 1 349 346 347 341 338 333 343 341